Location: Newark
(36.9825°N, 30.4647°E)
Time: 05:13:42
(UTC+00:00)

Hubble Space Telescope - Visible Passes

Search period start: 23 October 2019 00:00
Search period end: 02 November 2019 00:00
Orbit: 536 x 540 km, 28.5° (Epoch: 21 October)

Date Brightness Start Highest point End Pass type
(mag) Time Alt. Az. Time Alt. Az. Time Alt. Az.
27 Oct 3.5 03:30:21 10° S 03:31:49 12° SSE 03:33:16 10° SE visible
28 Oct 3.3 03:18:58 10° SSW 03:21:07 14° SSE 03:23:15 10° SE visible
29 Oct 3.2 03:07:51 10° SSW 03:10:25 16° SSE 03:12:59 10° SE visible
30 Oct 3.0 02:57:01 11° SSW 02:59:45 18° SSE 03:02:36 10° ESE visible
31 Oct 2.8 02:47:15 15° SSW 02:49:04 20° S 02:52:08 10° ESE visible
01 Nov 2.5 02:37:27 20° SSW 02:38:24 22° S 02:41:37 10° ESE visible
